Back to catalog

TIRSAT

AliveAmateur RadioSSO
NORAD 58989·PAYLOAD·🇯🇵 Japan

Launched Feb 17, 2024 from Tanegashima Space Center

Loading…

Next Passes (next 24 hours)

TLE

FreshSource: Space-Track

Epoch: Sep 14, 2026, 09:27 UTC

1 58989U 24032C   26257.39439339  .00000814  00000-0  13559-3 0  9994
2 58989  97.9881 314.2852 0004133 207.5337 152.5652 14.72630747138218

Track TIRSAT in real time with AllMySat

Download on the App Store